Location: Shenandoah County Park
(38.9356°N, 78.4524°W)
Time: 19:55:12
(UTC-04:00)

Tiangong - Visible Passes

Search period start: 04 October 2023 00:00
Search period end: 14 October 2023 00:00
Orbit: 370 x 384 km, 41.5° (Epoch: 04 October)

Date Brightness Start Highest point End Pass type
(mag) Time Alt. Az. Time Alt. Az. Time Alt. Az.
04 Oct -1.8 19:13:56 10° W 19:17:02 60° N 19:20:08 10° ENE visible
04 Oct -0.2 20:50:49 10° WNW 20:52:36 29° WNW 20:52:36 29° WNW visible
05 Oct -1.6 19:48:34 10° WNW 19:51:38 50° N 19:53:17 23° ENE visible
05 Oct 1.5 21:25:18 10° WNW 21:25:20 10° WNW 21:25:20 10° WNW visible
06 Oct -2.0 20:22:59 10° WNW 20:25:56 67° NNW 20:25:56 67° NNW visible
07 Oct -1.8 19:20:34 10° WNW 19:23:38 54° N 19:26:27 12° E visible
07 Oct 0.5 20:57:16 10° W 20:58:30 21° W 20:58:30 21° W visible
08 Oct -2.3 19:54:42 10° WNW 19:57:50 87° SSW 19:58:58 36° ESE visible
09 Oct -0.7 20:28:53 10° W 20:31:27 33° SW 20:31:27 33° SW visible
10 Oct -1.8 19:26:02 10° WNW 19:29:08 60° SSW 19:31:54 12° ESE visible
11 Oct 0.0 20:00:15 10° W 20:02:43 21° SSW 20:04:23 14° S visible
13 Oct 0.7 19:31:33 10° WSW 19:33:13 14° SW 19:34:52 10° S visible
